"read_dt","SO2 (ppb)","flags","PMT voltage (V)","lamp voltage (V)","lamp intensity (Hz)","internal temp (C)","react chamber temp (C)","sample flow (l/min)","pres (mmHg)","SO2 bkg (ppb)","SO2 coefficient"
2015-09-16 00:00:00,2137E-3,5C000400,-0724,0823,12261,030.3,045.5,0.253,762.5,01.16,0.508
2015-09-16 00:01:00,2012E-3,5C000400,-0724,0823,12311,030.3,045.5,0.253,762.6,01.16,0.508
2015-09-16 00:02:00,2020E-3,5C000400,-0724,0823,12236,030.3,045.5,0.253,762.6,01.16,0.508
2015-09-16 00:03:00,2063E-3,5C000400,-0724,0823,12393,030.3,045.5,0.253,762.6,01.16,0.508
2015-09-16 00:04:00,1995E-3,5C000400,-0724,0824,12309,030.4,045.5,0.253,762.6,01.16,0.508
2015-09-16 00:05:00,1985E-3,5C000400,-0724,0823,12252,030.4,045.5,0.253,762.6,01.16,0.508
2015-09-16 00:06:00,2060E-3,5C000400,-0724,0823,12350,030.4,045.5,0.253,762.6,01.16,0.508
2015-09-16 00:07:00,2269E-3,5C000400,-0724,0823,12230,030.4,045.5,0.252,762.6,01.16,0.508
2015-09-16 00:08:00,2029E-3,5C000400,-0724,0823,12264,030.4,045.5,0.253,762.7,01.16,0.508
2015-09-16 00:09:00,2007E-3,5C000400,-0724,0822,12321,030.5,045.5,0.252,762.7,01.16,0.508
2015-09-16 00:10:00,2262E-3,5C000400,-0724,0822,12131,030.5,045.5,0.252,762.6,01.16,0.508
2015-09-16 00:11:00,2138E-3,5C000400,-0724,0823,12235,030.5,045.5,0.252,762.7,01.16,0.508
2015-09-16 00:12:00,2125E-3,5C000400,-0724,0823,12185,030.5,045.5,0.252,762.7,01.16,0.508
2015-09-16 00:13:00,2107E-3,5C000400,-0724,0822,12326,030.6,045.5,0.253,762.6,01.16,0.508
2015-09-16 00:14:00,2129E-3,5C000400,-0724,0823,12229,030.6,045.5,0.253,762.6,01.16,0.508
2015-09-16 00:15:00,2000E-3,5C000400,-0724,0823,12379,030.6,045.5,0.252,762.7,01.16,0.508
2015-09-16 00:16:00,2238E-3,5C000400,-0724,0823,12315,030.6,045.5,0.253,762.6,01.16,0.508
2015-09-16 00:17:00,2146E-3,5C000400,-0724,0823,12331,030.6,045.5,0.252,762.6,01.16,0.508
2015-09-16 00:18:00,1991E-3,5C000400,-0724,0823,12290,030.6,045.5,0.252,762.6,01.16,0.508
2015-09-16 00:19:00,2103E-3,5C000400,-0724,0822,12323,030.6,045.5,0.252,762.6,01.16,0.508
2015-09-16 00:20:00,1967E-3,5C000400,-0724,0822,12295,030.7,045.5,0.252,762.6,01.16,0.508
2015-09-16 00:21:00,2112E-3,5C000400,-0724,0823,12254,030.7,045.5,0.252,762.6,01.16,0.508
2015-09-16 00:22:00,2146E-3,5C000400,-0724,0823,12357,030.7,045.5,0.252,762.7,01.16,0.508
2015-09-16 00:23:00,2107E-3,5C000400,-0724,0823,12277,030.6,045.5,0.252,762.6,01.16,0.508
2015-09-16 00:24:00,2109E-3,5C000400,-0724,0823,12328,030.5,045.5,0.252,762.7,01.16,0.508
2015-09-16 00:25:00,2090E-3,5C000400,-0724,0823,12347,030.4,045.5,0.252,762.7,01.16,0.508
2015-09-16 00:26:00,2024E-3,5C000400,-0724,0822,12276,030.2,045.5,0.252,762.7,01.16,0.508
2015-09-16 00:27:00,2075E-3,5C000400,-0724,0822,12278,030.1,045.5,0.252,762.7,01.16,0.508
2015-09-16 00:28:00,2160E-3,5C000400,-0724,0823,12178,029.9,045.5,0.252,762.7,01.16,0.508
2015-09-16 00:29:00,2169E-3,5C000400,-0724,0823,12203,029.8,045.5,0.253,762.7,01.16,0.508
2015-09-16 00:30:00,2021E-3,5C000400,-0724,0823,12327,029.6,045.5,0.252,762.7,01.16,0.508
2015-09-16 00:31:00,2168E-3,5C000400,-0724,0822,12331,029.6,045.5,0.253,762.7,01.16,0.508
2015-09-16 00:32:00,2065E-3,5C000400,-0724,0822,12212,029.6,045.5,0.253,762.7,01.16,0.508
2015-09-16 00:33:00,2135E-3,5C000400,-0724,0823,12263,029.7,045.5,0.253,762.7,01.16,0.508
2015-09-16 00:34:00,2051E-3,5C000400,-0724,0822,12318,029.7,045.5,0.253,762.7,01.16,0.508
2015-09-16 00:35:00,2062E-3,5C000400,-0724,0823,12312,029.8,045.5,0.253,762.7,01.16,0.508
2015-09-16 00:36:00,2019E-3,5C000400,-0724,0823,12338,029.8,045.5,0.253,762.7,01.16,0.508
2015-09-16 00:37:00,2089E-3,5C000400,-0724,0823,12308,029.9,045.5,0.253,762.6,01.16,0.508
2015-09-16 00:38:00,1956E-3,5C000400,-0724,0823,12215,029.9,045.5,0.253,762.7,01.16,0.508
2015-09-16 00:39:00,2098E-3,5C000400,-0724,0822,12349,029.9,045.5,0.253,762.7,01.16,0.508
2015-09-16 00:40:00,2010E-3,5C000400,-0724,0822,12210,030.0,045.5,0.253,762.6,01.16,0.508
2015-09-16 00:41:00,2148E-3,5C000400,-0724,0823,12171,030.0,045.5,0.253,762.7,01.16,0.508
2015-09-16 00:42:00,1962E-3,5C000400,-0724,0822,12309,030.1,045.5,0.253,762.7,01.16,0.508
2015-09-16 00:43:00,2035E-3,5C000400,-0724,0823,12317,030.1,045.5,0.253,762.7,01.16,0.508
2015-09-16 00:44:00,2105E-3,5C000400,-0724,0823,12216,030.1,045.5,0.253,762.6,01.16,0.508
2015-09-16 00:45:00,2308E-3,5C000400,-0724,0823,12110,030.2,045.5,0.253,762.6,01.16,0.508
2015-09-16 00:46:00,2043E-3,5C000400,-0724,0823,12306,030.2,045.5,0.253,762.7,01.16,0.508
2015-09-16 00:47:00,2043E-3,5C000400,-0724,0823,12387,030.2,045.5,0.252,762.7,01.16,0.508
2015-09-16 00:48:00,2273E-3,5C000400,-0724,0823,12224,030.3,045.5,0.253,762.6,01.16,0.508
2015-09-16 00:49:00,2006E-3,5C000400,-0724,0823,12134,030.3,045.5,0.252,762.7,01.16,0.508
2015-09-16 00:50:00,2010E-3,5C000400,-0724,0823,12150,030.3,045.5,0.253,762.7,01.16,0.508
2015-09-16 00:51:00,2032E-3,5C000400,-0724,0823,12228,030.4,045.5,0.252,762.7,01.16,0.508
2015-09-16 00:52:00,2095E-3,5C000400,-0724,0822,12287,030.4,045.5,0.253,762.8,01.16,0.508
2015-09-16 00:53:00,1986E-3,5C000400,-0724,0822,12266,030.4,045.5,0.252,762.7,01.16,0.508
2015-09-16 00:54:00,2122E-3,5C000400,-0724,0822,12228,030.4,045.5,0.253,762.7,01.16,0.508
2015-09-16 00:55:00,2033E-3,5C000400,-0724,0823,12209,030.5,045.5,0.252,762.7,01.16,0.508
2015-09-16 00:56:00,1953E-3,5C000400,-0724,0823,12253,030.5,045.5,0.252,762.8,01.16,0.508
2015-09-16 00:57:00,2076E-3,5C000400,-0724,0823,12281,030.5,045.5,0.252,762.7,01.16,0.508
2015-09-16 00:58:00,2013E-3,5C000400,-0724,0822,12339,030.5,045.5,0.252,762.8,01.16,0.508
2015-09-16 00:59:00,2177E-3,5C000400,-0724,0822,12292,030.5,045.5,0.252,762.7,01.16,0.508
2015-09-16 01:00:00,2031E-3,5C000400,-0724,0823,12230,030.5,045.5,0.252,762.8,01.16,0.508
2015-09-16 01:01:00,1942E-3,5C000400,-0724,0823,12255,030.5,045.5,0.252,762.7,01.16,0.508
2015-09-16 01:02:00,2124E-3,5C000400,-0724,0823,12256,030.6,045.5,0.252,762.7,01.16,0.508
2015-09-16 01:03:00,2136E-3,5C000400,-0724,0824,12308,030.6,045.5,0.252,762.7,01.16,0.508
2015-09-16 01:04:00,2165E-3,5C000400,-0724,0822,12141,030.6,045.5,0.252,762.8,01.16,0.508
2015-09-16 01:05:00,2042E-3,5C000400,-0724,0823,12371,030.6,045.5,0.252,762.7,01.16,0.508
2015-09-16 01:06:00,2191E-3,5C000400,-0724,0823,12217,030.6,045.5,0.252,762.7,01.16,0.508
2015-09-16 01:07:00,2031E-3,5C000400,-0724,0823,12427,030.7,045.5,0.252,762.8,01.16,0.508
2015-09-16 01:08:00,2061E-3,5C000400,-0724,0823,12244,030.7,045.5,0.252,762.7,01.16,0.508
2015-09-16 01:09:00,2222E-3,5C000400,-0724,0822,12225,030.7,045.5,0.252,762.7,01.16,0.508
2015-09-16 01:10:00,2055E-3,5C000400,-0724,0823,12243,030.6,045.5,0.252,762.7,01.16,0.508
2015-09-16 01:11:00,1994E-3,5C000400,-0724,0823,12062,030.4,045.5,0.252,762.7,01.16,0.508
2015-09-16 01:12:00,2053E-3,5C000400,-0724,0824,12167,030.3,045.5,0.252,762.8,01.16,0.508
2015-09-16 01:13:00,2017E-3,5C000400,-0724,0822,12130,030.1,045.5,0.252,762.7,01.16,0.508
2015-09-16 01:14:00,2024E-3,5C000400,-0724,0822,12305,029.9,045.5,0.252,762.8,01.16,0.508
2015-09-16 01:15:00,2018E-3,5C000400,-0724,0823,12390,029.8,045.5,0.253,762.8,01.16,0.508
2015-09-16 01:16:00,2017E-3,5C000400,-0724,0823,12421,029.6,045.5,0.253,762.7,01.16,0.508
2015-09-16 01:17:00,2022E-3,5C000400,-0724,0822,12195,029.5,045.5,0.253,762.9,01.16,0.508
2015-09-16 01:18:00,1964E-3,5C000400,-0724,0822,12313,029.5,045.5,0.253,762.9,01.16,0.508
2015-09-16 01:19:00,1971E-3,5C000400,-0724,0822,12084,029.6,045.5,0.253,762.9,01.16,0.508
2015-09-16 01:20:00,2077E-3,5C000400,-0724,0823,12470,029.6,045.5,0.253,762.9,01.16,0.508
2015-09-16 01:21:00,2042E-3,5C000400,-0724,0823,12276,029.6,045.5,0.253,762.9,01.16,0.508
2015-09-16 01:22:00,2096E-3,5C000400,-0724,0823,12265,029.7,045.5,0.254,762.9,01.16,0.508
2015-09-16 01:23:00,2001E-3,5C000400,-0724,0823,12277,029.8,045.5,0.253,762.9,01.16,0.508
2015-09-16 01:24:00,2146E-3,5C000400,-0724,0822,12202,029.8,045.5,0.253,762.9,01.16,0.508
2015-09-16 01:25:00,2141E-3,5C000400,-0724,0822,12401,029.8,045.5,0.253,762.8,01.16,0.508
2015-09-16 01:26:00,2024E-3,5C000400,-0724,0823,12355,029.9,045.5,0.253,762.8,01.16,0.508
2015-09-16 01:27:00,2098E-3,5C000400,-0724,0823,12095,029.9,045.5,0.253,762.8,01.16,0.508
2015-09-16 01:28:00,2051E-3,5C000400,-0724,0823,12191,030.0,045.5,0.253,762.8,01.16,0.508
2015-09-16 01:29:00,2032E-3,5C000400,-0724,0823,12156,030.0,045.5,0.253,762.8,01.16,0.508
2015-09-16 01:30:00,2045E-3,5C000400,-0724,0823,12456,030.1,045.5,0.253,762.8,01.16,0.508
2015-09-16 01:31:00,2196E-3,5C000400,-0724,0823,12255,030.1,045.5,0.253,762.8,01.16,0.508
2015-09-16 01:32:00,2073E-3,5C000400,-0724,0824,12325,030.1,045.5,0.253,762.8,01.16,0.508
2015-09-16 01:33:00,2176E-3,5C000400,-0724,0823,12327,030.2,045.5,0.253,762.8,01.16,0.508
2015-09-16 01:34:00,2118E-3,5C000400,-0724,0822,12196,030.2,045.5,0.253,762.8,01.16,0.508
2015-09-16 01:35:00,2046E-3,5C000400,-0724,0823,12175,030.2,045.5,0.253,762.8,01.16,0.508
2015-09-16 01:36:00,2086E-3,5C000400,-0724,0823,12339,030.3,045.5,0.253,762.9,01.16,0.508
2015-09-16 01:37:00,2041E-3,5C000400,-0724,0823,11984,030.3,045.5,0.253,762.8,01.16,0.508
2015-09-16 01:38:00,2116E-3,5C000400,-0724,0823,12331,030.3,045.5,0.253,762.8,01.16,0.508
2015-09-16 01:39:00,2117E-3,5C000400,-0724,0823,12038,030.4,045.5,0.252,762.8,01.16,0.508
2015-09-16 01:40:00,2269E-3,5C000400,-0724,0823,12236,030.4,045.5,0.253,762.7,01.16,0.508
2015-09-16 01:41:00,2096E-3,5C000400,-0724,0823,12217,030.4,045.5,0.253,762.8,01.16,0.508
2015-09-16 01:42:00,1929E-3,5C000400,-0724,0823,12315,030.4,045.5,0.252,762.8,01.16,0.508
2015-09-16 01:43:00,2051E-3,5C000400,-0724,0823,12233,030.4,045.5,0.252,762.7,01.16,0.508
2015-09-16 01:44:00,1991E-3,5C000400,-0724,0823,12254,030.5,045.5,0.253,762.7,01.16,0.508
2015-09-16 01:45:00,2025E-3,5C000400,-0724,0824,12355,030.5,045.5,0.252,762.8,01.16,0.508
2015-09-16 01:46:00,1945E-3,5C000400,-0724,0824,12212,030.5,045.5,0.252,762.7,01.16,0.508
2015-09-16 01:47:00,2117E-3,5C000400,-0724,0823,12357,030.5,045.5,0.252,762.7,01.16,0.508
2015-09-16 01:48:00,2154E-3,5C000400,-0724,0823,12123,030.6,045.5,0.252,762.8,01.16,0.508
2015-09-16 01:49:00,1804E-3,5C000400,-0724,0823,12334,030.6,045.5,0.252,762.8,01.16,0.508
2015-09-16 01:50:00,2021E-3,5C000400,-0724,0823,12225,030.6,045.5,0.252,762.8,01.16,0.508
2015-09-16 01:51:00,2142E-3,5C000400,-0724,0822,12199,030.6,045.5,0.252,762.8,01.16,0.508
2015-09-16 01:52:00,2029E-3,5C000400,-0724,0824,12416,030.6,045.5,0.252,762.7,01.16,0.508
2015-09-16 01:53:00,2080E-3,5C000400,-0724,0823,12275,030.5,045.5,0.252,762.8,01.16,0.508
2015-09-16 01:54:00,2065E-3,5C000400,-0724,0822,12386,030.3,045.5,0.252,762.7,01.16,0.508
2015-09-16 01:55:00,2105E-3,5C000400,-0724,0823,12267,030.1,045.5,0.252,762.8,01.16,0.508
2015-09-16 01:56:00,2034E-3,5C000400,-0724,0823,12342,029.9,045.5,0.252,762.8,01.16,0.508
2015-09-16 01:57:00,2054E-3,5C000400,-0724,0823,12263,029.8,045.5,0.252,762.8,01.16,0.508
2015-09-16 01:58:00,2105E-3,5C000400,-0724,0823,12361,029.7,045.5,0.252,762.8,01.16,0.508
2015-09-16 01:59:00,2179E-3,5C000400,-0724,0822,12278,029.6,045.5,0.252,762.7,01.16,0.508
2015-09-16 02:00:00,2113E-3,5C000400,-0724,0822,12310,029.5,045.5,0.252,762.7,01.16,0.508
2015-09-16 02:01:00,1962E-3,5C000400,-0724,0822,12298,029.5,045.5,0.253,762.8,01.16,0.508
2015-09-16 02:02:00,2047E-3,5C000400,-0724,0823,12220,029.6,045.5,0.253,762.8,01.16,0.508
2015-09-16 02:03:00,1972E-3,5C000400,-0724,0823,12250,029.6,045.5,0.253,762.7,01.16,0.508
2015-09-16 02:04:00,2046E-3,5C000400,-0724,0822,12078,029.6,045.5,0.254,762.7,01.16,0.508
2015-09-16 02:05:00,2047E-3,5C000400,-0724,0823,12295,029.7,045.5,0.253,762.7,01.16,0.508
2015-09-16 02:06:00,2015E-3,5C000400,-0724,0823,12143,029.8,045.5,0.253,762.8,01.16,0.508
2015-09-16 02:07:00,2246E-3,5C000400,-0724,0822,12219,029.8,045.5,0.254,762.8,01.16,0.508
2015-09-16 02:08:00,2037E-3,5C000400,-0724,0822,12202,029.9,045.5,0.253,762.7,01.16,0.508
2015-09-16 02:09:00,2044E-3,5C000400,-0724,0822,12273,029.9,045.5,0.253,762.8,01.16,0.508
2015-09-16 02:10:00,2099E-3,5C000400,-0724,0824,12348,029.9,045.5,0.254,762.8,01.16,0.508
2015-09-16 02:11:00,2025E-3,5C000400,-0724,0823,12233,030.0,045.5,0.253,762.8,01.16,0.508
2015-09-16 02:12:00,2057E-3,5C000400,-0724,0822,12293,030.0,045.5,0.253,762.8,01.16,0.508
2015-09-16 02:13:00,2031E-3,5C000400,-0724,0823,12219,030.0,045.5,0.254,762.7,01.16,0.508
2015-09-16 02:14:00,2045E-3,5C000400,-0724,0823,12178,030.1,045.5,0.253,762.7,01.16,0.508
2015-09-16 02:15:00,2031E-3,5C000400,-0724,0823,12275,030.1,045.5,0.253,762.8,01.16,0.508
2015-09-16 02:16:00,1991E-3,5C000400,-0724,0823,12362,030.2,045.5,0.254,762.7,01.16,0.508
2015-09-16 02:17:00,2141E-3,5C000400,-0724,0823,12237,030.2,045.5,0.253,762.8,01.16,0.508
2015-09-16 02:18:00,2065E-3,5C000400,-0724,0825,12294,030.3,045.5,0.252,762.8,01.16,0.508
2015-09-16 02:19:00,2077E-3,5C000400,-0724,0823,12299,030.3,045.5,0.253,762.8,01.16,0.508
2015-09-16 02:20:00,2210E-3,5C000400,-0724,0824,12293,030.3,045.5,0.253,762.9,01.16,0.508
2015-09-16 02:21:00,2138E-3,5C000400,-0724,0823,12217,030.3,045.5,0.253,762.8,01.16,0.508
2015-09-16 02:22:00,2140E-3,5C000400,-0724,0822,12169,030.4,045.5,0.253,762.9,01.16,0.508
2015-09-16 02:23:00,1967E-3,5C000400,-0724,0823,12288,030.4,045.5,0.253,762.9,01.16,0.508
2015-09-16 02:24:00,2044E-3,5C000400,-0724,0823,12145,030.4,045.5,0.252,762.9,01.16,0.508
2015-09-16 02:25:00,1877E-3,5C000400,-0724,0823,12213,030.4,045.5,0.253,762.8,01.16,0.508
2015-09-16 02:26:00,2022E-3,5C000400,-0724,0823,12306,030.4,045.5,0.253,762.8,01.16,0.508
2015-09-16 02:27:00,1987E-3,5C000400,-0724,0822,12267,030.5,045.5,0.252,762.9,01.16,0.508
2015-09-16 02:28:00,2071E-3,5C000400,-0724,0823,12269,030.5,045.5,0.252,762.9,01.16,0.508
2015-09-16 02:29:00,2035E-3,5C000400,-0724,0823,12334,030.6,045.5,0.252,762.8,01.16,0.508
2015-09-16 02:30:00,2000E-3,5C000400,-0724,0824,12202,030.6,045.5,0.252,762.8,01.16,0.508
2015-09-16 02:31:00,1963E-3,5C000400,-0724,0823,12360,030.6,045.5,0.252,762.8,01.16,0.508
2015-09-16 02:32:00,2088E-3,5C000400,-0724,0823,12167,030.6,045.5,0.252,762.8,01.16,0.508
2015-09-16 02:33:00,2173E-3,5C000400,-0724,0823,12287,030.6,045.5,0.252,762.9,01.16,0.508
2015-09-16 02:34:00,2005E-3,5C000400,-0724,0823,12255,030.6,045.5,0.252,762.8,01.16,0.508
2015-09-16 02:35:00,1976E-3,5C000400,-0724,0825,12136,030.6,045.5,0.252,762.8,01.16,0.508
2015-09-16 02:36:00,1976E-3,5C000400,-0724,0823,12226,030.5,045.5,0.252,762.8,01.16,0.508
2015-09-16 02:37:00,2072E-3,5C000400,-0724,0823,12209,030.3,045.5,0.252,762.9,01.16,0.508
2015-09-16 02:38:00,2033E-3,5C000400,-0724,0823,12265,030.1,045.5,0.252,762.9,01.16,0.508
2015-09-16 02:39:00,2116E-3,5C000400,-0724,0823,12180,029.9,045.5,0.252,762.9,01.16,0.508
2015-09-16 02:40:00,1999E-3,5C000400,-0724,0823,12251,029.7,045.5,0.253,762.9,01.16,0.508
2015-09-16 02:41:00,1993E-3,5C000400,-0724,0824,12054,029.6,045.5,0.253,762.8,01.16,0.508
2015-09-16 02:42:00,2127E-3,5C000400,-0724,0823,12398,029.5,045.5,0.253,762.9,01.16,0.508
2015-09-16 02:43:00,2143E-3,5C000400,-0724,0822,12276,029.4,045.5,0.253,762.9,01.16,0.508
2015-09-16 02:44:00,2025E-3,5C000400,-0724,0823,12273,029.4,045.5,0.253,762.9,01.16,0.508
2015-09-16 02:45:00,2090E-3,5C000400,-0724,0823,12193,029.5,045.5,0.253,762.9,01.16,0.508
2015-09-16 02:46:00,2114E-3,5C000400,-0724,0822,12221,029.5,045.5,0.253,762.8,01.16,0.508
2015-09-16 02:47:00,2132E-3,5C000400,-0724,0824,12203,029.6,045.5,0.253,762.9,01.16,0.508
2015-09-16 02:48:00,2074E-3,5C000400,-0724,0823,12236,029.6,045.5,0.254,762.8,01.16,0.508
2015-09-16 02:49:00,1991E-3,5C000400,-0724,0823,12264,029.7,045.5,0.254,762.8,01.16,0.508
2015-09-16 02:50:00,2033E-3,5C000400,-0724,0822,12242,029.8,045.5,0.253,762.8,01.16,0.508
2015-09-16 02:51:00,2002E-3,5C000400,-0724,0823,12300,029.8,045.5,0.254,762.9,01.16,0.508
2015-09-16 02:52:00,2085E-3,5C000400,-0724,0823,12274,029.8,045.5,0.253,762.8,01.16,0.508
2015-09-16 02:53:00,2107E-3,5C000400,-0724,0823,12363,029.9,045.5,0.253,762.8,01.16,0.508
2015-09-16 02:54:00,2067E-3,5C000400,-0724,0823,12098,029.9,045.5,0.253,762.8,01.16,0.508
2015-09-16 02:55:00,2063E-3,5C000400,-0724,0823,12344,030.0,045.5,0.253,762.9,01.16,0.508
2015-09-16 02:56:00,2128E-3,5C000400,-0724,0823,12340,030.0,045.5,0.254,762.8,01.16,0.508
2015-09-16 02:57:00,2223E-3,5C000400,-0724,0823,12257,030.1,045.5,0.253,762.8,01.16,0.508
2015-09-16 02:58:00,2011E-3,5C000400,-0724,0823,12394,030.1,045.5,0.253,762.8,01.16,0.508
2015-09-16 02:59:00,2112E-3,5C000400,-0724,0822,12284,030.2,045.5,0.253,762.8,01.16,0.508
2015-09-16 03:00:00,2130E-3,5C000400,-0724,0823,12070,030.2,045.5,0.253,762.8,01.16,0.508
2015-09-16 03:01:00,2045E-3,5C000400,-0724,0823,12224,030.2,045.5,0.253,762.8,01.16,0.508
2015-09-16 03:02:00,2083E-3,5C000400,-0724,0824,12426,030.2,045.5,0.253,762.8,01.16,0.508
2015-09-16 03:03:00,1925E-3,5C000400,-0724,0823,12264,030.3,045.5,0.253,762.8,01.16,0.508
2015-09-16 03:04:00,2067E-3,5C000400,-0724,0823,12294,030.3,045.5,0.253,762.8,01.16,0.508
2015-09-16 03:05:00,1998E-3,5C000400,-0724,0824,12392,030.4,045.5,0.252,762.7,01.16,0.508
2015-09-16 03:06:00,2120E-3,5C000400,-0724,0823,12278,030.4,045.5,0.253,762.8,01.16,0.508
2015-09-16 03:07:00,2165E-3,5C000400,-0724,0824,12270,030.4,045.5,0.253,762.8,01.16,0.508
2015-09-16 03:08:00,2116E-3,5C000400,-0724,0824,12298,030.4,045.5,0.252,762.8,01.16,0.508
2015-09-16 03:09:00,2057E-3,5C000400,-0724,0823,12295,030.5,045.5,0.253,762.8,01.16,0.508
2015-09-16 03:10:00,2171E-3,5C000400,-0724,0823,12240,030.5,045.5,0.253,762.8,01.16,0.508
2015-09-16 03:11:00,2274E-3,5C000400,-0724,0823,12155,030.5,045.5,0.252,762.7,01.16,0.508
2015-09-16 03:12:00,2034E-3,5C000400,-0724,0822,12216,030.5,045.5,0.252,762.8,01.16,0.508
2015-09-16 03:13:00,2081E-3,5C000400,-0724,0823,12274,030.5,045.5,0.253,762.7,01.16,0.508
2015-09-16 03:14:00,2088E-3,5C000400,-0724,0823,12195,030.5,045.5,0.253,762.7,01.16,0.508
2015-09-16 03:15:00,1998E-3,5C000400,-0724,0823,12334,030.5,045.5,0.253,762.7,01.16,0.508
2015-09-16 03:16:00,1997E-3,5C000400,-0724,0823,12292,030.3,045.5,0.253,762.7,01.16,0.508
2015-09-16 03:17:00,2176E-3,5C000400,-0724,0824,12223,030.1,045.5,0.252,762.8,01.16,0.508
2015-09-16 03:18:00,1976E-3,5C000400,-0724,0823,12408,029.9,045.5,0.252,762.9,01.16,0.508
2015-09-16 03:19:00,2075E-3,5C000400,-0724,0822,12243,029.8,045.5,0.252,762.8,01.16,0.508
2015-09-16 03:20:00,2045E-3,5C000400,-0724,0823,12316,029.7,045.5,0.253,762.9,01.16,0.508
2015-09-16 03:21:00,2161E-3,5C000400,-0724,0823,12198,029.5,045.5,0.253,762.9,01.16,0.508
2015-09-16 03:22:00,2201E-3,5C000400,-0724,0822,12373,029.5,045.5,0.253,762.9,01.16,0.508
2015-09-16 03:23:00,2080E-3,5C000400,-0724,0823,12298,029.4,045.5,0.253,762.8,01.16,0.508
2015-09-16 03:24:00,1974E-3,5C000400,-0724,0822,12248,029.4,045.5,0.253,762.8,01.16,0.508
2015-09-16 03:25:00,2098E-3,5C000400,-0724,0823,12169,029.5,045.5,0.253,762.8,01.16,0.508
2015-09-16 03:26:00,2090E-3,5C000400,-0724,0823,12182,029.6,045.5,0.254,762.8,01.16,0.508
2015-09-16 03:27:00,1921E-3,5C000400,-0724,0823,12289,029.7,045.5,0.253,762.8,01.16,0.508
2015-09-16 03:28:00,2024E-3,5C000400,-0724,0823,12265,029.7,045.5,0.253,762.8,01.16,0.508
2015-09-16 03:29:00,2013E-3,5C000400,-0724,0823,12245,029.8,045.5,0.254,762.7,01.16,0.508
2015-09-16 03:30:00,2098E-3,5C000400,-0724,0823,12057,029.8,045.5,0.253,762.7,01.16,0.508
2015-09-16 03:31:00,2056E-3,5C000400,-0724,0822,12167,029.9,045.5,0.254,762.8,01.16,0.508
2015-09-16 03:32:00,2034E-3,5C000400,-0724,0823,12191,029.9,045.5,0.253,762.8,01.16,0.508
2015-09-16 03:33:00,2030E-3,5C000400,-0724,0822,12244,030.0,045.5,0.254,762.8,01.16,0.508
2015-09-16 03:34:00,2031E-3,5C000400,-0724,0823,12310,030.0,045.5,0.253,762.7,01.16,0.508
2015-09-16 03:35:00,2120E-3,5C000400,-0724,0823,12257,030.0,045.5,0.253,762.7,01.16,0.508
2015-09-16 03:36:00,1999E-3,5C000400,-0724,0822,12220,030.1,045.5,0.253,762.7,01.16,0.508
2015-09-16 03:37:00,2025E-3,5C000400,-0724,0823,12337,030.1,045.5,0.253,762.7,01.16,0.508
2015-09-16 03:38:00,1953E-3,5C000400,-0724,0823,12289,030.2,045.5,0.253,762.7,01.16,0.508
2015-09-16 03:39:00,2150E-3,5C000400,-0724,0824,12287,030.2,045.5,0.253,762.7,01.16,0.508
2015-09-16 03:40:00,2164E-3,5C000400,-0724,0823,12230,030.2,045.5,0.253,762.8,01.16,0.508
2015-09-16 03:41:00,2094E-3,5C000400,-0724,0822,12240,030.3,045.5,0.253,762.7,01.16,0.508
2015-09-16 03:42:00,2144E-3,5C000400,-0724,0823,12237,030.3,045.5,0.253,762.7,01.16,0.508
2015-09-16 03:43:00,2031E-3,5C000400,-0724,0823,12295,030.3,045.5,0.253,762.7,01.16,0.508
2015-09-16 03:44:00,1950E-3,5C000400,-0724,0822,12063,030.3,045.5,0.252,762.7,01.16,0.508
2015-09-16 03:45:00,2046E-3,5C000400,-0724,0823,12261,030.4,045.5,0.253,762.7,01.16,0.508
2015-09-16 03:46:00,2052E-3,5C000400,-0724,0823,12343,030.4,045.5,0.253,762.7,01.16,0.508
2015-09-16 03:47:00,2108E-3,5C000400,-0724,0823,12371,030.4,045.5,0.252,762.7,01.16,0.508
2015-09-16 03:48:00,2214E-3,5C000400,-0724,0824,12345,030.4,045.5,0.253,762.7,01.16,0.508
2015-09-16 03:49:00,2088E-3,5C000400,-0724,0823,12197,030.5,045.5,0.252,762.7,01.16,0.508
2015-09-16 03:50:00,2004E-3,5C000400,-0724,0823,12149,030.5,045.5,0.252,762.8,01.16,0.508
2015-09-16 03:51:00,2025E-3,5C000400,-0724,0823,12402,030.5,045.5,0.253,762.8,01.16,0.508
2015-09-16 03:52:00,2035E-3,5C000400,-0724,0823,12173,030.5,045.5,0.252,762.8,01.16,0.508
2015-09-16 03:53:00,2014E-3,5C000400,-0724,0822,12366,030.5,045.5,0.252,762.7,01.16,0.508
2015-09-16 03:54:00,2090E-3,5C000400,-0724,0823,12213,030.4,045.5,0.252,762.8,01.16,0.508
2015-09-16 03:55:00,2142E-3,5C000400,-0724,0823,12053,030.2,045.5,0.252,762.8,01.16,0.508
2015-09-16 03:56:00,2126E-3,5C000400,-0724,0823,12279,030.0,045.5,0.252,762.8,01.16,0.508
2015-09-16 03:57:00,2000E-3,5C000400,-0724,0823,12292,029.8,045.5,0.253,762.9,01.16,0.508
2015-09-16 03:58:00,2071E-3,5C000400,-0724,0823,12213,029.7,045.5,0.253,762.9,01.16,0.508
2015-09-16 03:59:00,2012E-3,5C000400,-0724,0823,12296,029.5,045.5,0.253,762.9,01.16,0.508
2015-09-16 04:00:00,2123E-3,5C000400,-0724,0822,12317,029.4,045.5,0.253,762.9,01.16,0.508
2015-09-16 04:01:00,2139E-3,5C000400,-0724,0823,12399,029.4,045.5,0.253,762.9,01.16,0.508
2015-09-16 04:02:00,2054E-3,5C000400,-0724,0823,12098,029.5,045.5,0.253,762.8,01.16,0.508
2015-09-16 04:03:00,2115E-3,5C000400,-0724,0823,12376,029.5,045.5,0.253,762.9,01.16,0.508
2015-09-16 04:04:00,2032E-3,5C000400,-0724,0823,12284,029.6,045.5,0.253,762.8,01.16,0.508
2015-09-16 04:05:00,2016E-3,5C000400,-0724,0823,12267,029.6,045.5,0.254,762.8,01.16,0.508
2015-09-16 04:06:00,1977E-3,5C000400,-0724,0823,12233,029.7,045.5,0.253,762.8,01.16,0.508
2015-09-16 04:07:00,1975E-3,5C000400,-0724,0822,12369,029.7,045.5,0.254,762.8,01.16,0.508
2015-09-16 04:08:00,2031E-3,5C000400,-0724,0822,12230,029.8,045.5,0.253,762.8,01.16,0.508
2015-09-16 04:09:00,2030E-3,5C000400,-0724,0822,12159,029.8,045.5,0.253,762.8,01.16,0.508
2015-09-16 04:10:00,1994E-3,5C000400,-0724,0823,12207,029.9,045.5,0.253,762.8,01.16,0.508
2015-09-16 04:11:00,2146E-3,5C000400,-0724,0823,12291,029.9,045.5,0.253,762.8,01.16,0.508
2015-09-16 04:12:00,2149E-3,5C000400,-0724,0823,12265,030.0,045.5,0.253,762.8,01.16,0.508
2015-09-16 04:13:00,2070E-3,5C000400,-0724,0823,12372,030.0,045.5,0.253,762.8,01.16,0.508
2015-09-16 04:14:00,2132E-3,5C000400,-0724,0823,12145,030.0,045.5,0.254,762.8,01.16,0.508
2015-09-16 04:15:00,2088E-3,5C000400,-0724,0822,12150,030.1,045.5,0.253,762.7,01.16,0.508
2015-09-16 04:16:00,1951E-3,5C000400,-0724,0823,12196,030.1,045.5,0.253,762.8,01.16,0.508
2015-09-16 04:17:00,2066E-3,5C000400,-0724,0823,12302,030.2,045.5,0.253,762.8,01.16,0.508
2015-09-16 04:18:00,2049E-3,5C000400,-0724,0823,12236,030.2,045.5,0.253,762.9,01.16,0.508
2015-09-16 04:19:00,1956E-3,5C000400,-0724,0823,12293,030.2,045.5,0.253,762.8,01.16,0.508
2015-09-16 04:20:00,1984E-3,5C000400,-0724,0824,12254,030.3,045.5,0.253,762.9,01.16,0.508